This is the latest recevied weather packets stored in our database for station/object WB6ANP. If no packets are shown the sender has not sent any weather packets the latest 10 day(s).
| Time | Temp. | Humidity | Pressure | Rain* | Wind** | Luminosity | Snow |
|---|---|---|---|---|---|---|---|
| 1777940548 | 25.56° C | 62% | 1005.5 hPa | 0 mm | - | 53 W/m² | - |
| 1777940245 | 25.56° C | 61% | 1005.5 hPa | 0 mm | - | 57 W/m² | - |
| 1777939943 | 25.56° C | 60% | 1005.6 hPa | 0 mm | - | 69 W/m² | - |
| 1777939640 | 26.11° C | 60% | 1005.6 hPa | 0 mm | - | 76 W/m² | - |
| 1777939337 | 26.11° C | 60% | 1005.6 hPa | 0 mm | - | 88 W/m² | - |
| 1777939034 | 26.11° C | 59% | 1005.4 hPa | 0 mm | - | 105 W/m² | - |
| 1777938730 | 26.11° C | 59% | 1005.6 hPa | 0 mm | - | 127 W/m² | - |
| 1777938428 | 26.11° C | 59% | 1005.6 hPa | 0 mm | - | 131 W/m² | - |
| 1777938124 | 26.67° C | 58% | 1005.9 hPa | 0 mm | - | 127 W/m² | - |
| 1777937820 | 26.67° C | 58% | 1005.8 hPa | 0 mm | - | 142 W/m² | - |
| 1777937516 | 26.67° C | 57% | 1006 hPa | 0 mm | - | 169 W/m² | - |
| 1777937214 | 26.67° C | 57% | 1006 hPa | 0 mm | - | 176 W/m² | - |
| 1777936911 | 26.67° C | 56% | 1005.9 hPa | 0 mm | - | 176 W/m² | - |
| 1777936608 | 26.67° C | 56% | 1006 hPa | 0 mm | - | 216 W/m² | - |
| 1777936304 | 26.67° C | 57% | 1006 hPa | 0 mm | - | 199 W/m² | - |
| 1777936000 | 27.22° C | 57% | 1006 hPa | 0 mm | - | 210 W/m² | - |
| 1777935699 | 26.67° C | 57% | 1006 hPa | 0 mm | - | 227 W/m² | - |
| 1777935397 | 27.22° C | 56% | 1005.8 hPa | 0 mm | - | 225 W/m² | - |
| 1777935093 | 27.22° C | 56% | 1006 hPa | 0 mm | - | 216 W/m² | - |
| 1777934790 | 27.22° C | 55% | 1005.9 hPa | 0 mm | - | 250 W/m² | - |
| 1777934486 | 27.22° C | 55% | 1006.1 hPa | 0 mm | - | 350 W/m² | - |
| 1777934184 | 27.22° C | 56% | 1006.2 hPa | 0 mm | - | 305 W/m² | - |
| 1777933879 | 27.22° C | 55% | 1006.2 hPa | 0 mm | - | 232 W/m² | - |
| 1777933576 | 27.78° C | 54% | 1006.3 hPa | 0 mm | - | 340 W/m² | - |
| 1777933274 | 27.78° C | 53% | 1006.2 hPa | 0 mm | - | 438 W/m² | - |
* Rain latest hour (hover to see other rain measurements)
** Current wind speed in m/s (hover to see current wind gust speed)